Location: Cazavet
(43.0017°N, 1.0431°E)
Time: 21:52:04
(UTC+00:00)

Cosmos 921 Rocket - Pass Details

Date: 18 January 2026
Orbit: 564 x 620 km, 75.8° (Epoch: 10 February)

Event Time Altitude Azimuth Distance (km) Brightness Sun altitude
Exits shadow 05:21:43 34° 351° (N) 968 3.9 -21.8°
Drops below altitude 10° 05:24:19 10° 9° (N) 1,903 5.6 -21.3°
Sets 05:26:33 0° 14° (NNE) 2,798 6.5 -20.9°
